Location: Palo Alto
(37.4420°N, 122.1420°W)
Time: 03:34:29
(UTC-07:00)

ARGOS - Visible Passes

Search period start: 26 July 2017 00:00
Search period end: 05 August 2017 00:00
Orbit: 819 x 836 km, 98.6° (Epoch: 25 July)

Date Brightness Start Highest point End Pass type
(mag) Time Alt. Az. Time Alt. Az. Time Alt. Az.
26 Jul 4.6 21:10:23 11° ESE 21:14:08 22° ENE 21:18:09 10° NNE visible
26 Jul 4.0 22:51:55 30° SSW 22:54:02 44° W 22:59:09 10° NNW visible
27 Jul 5.0 20:52:51 10° E 20:55:48 15° ENE 20:58:45 10° NNE visible
27 Jul 3.3 22:33:11 35° S 22:35:26 67° WSW 22:40:47 10° NNW visible
28 Jul 3.1 22:14:26 34° SSE 22:16:52 82° ENE 22:22:15 10° N visible
28 Jul 5.7 23:56:47 10° W 23:57:41 10° W 23:58:35 10° W visible
29 Jul 3.3 21:55:42 28° SE 21:58:21 55° ENE 22:03:35 10° N visible
29 Jul 5.3 23:37:14 15° WSW 23:38:54 17° W 23:42:15 10° NW visible
30 Jul 3.8 21:36:59 21° ESE 21:39:54 37° ENE 21:44:47 10° N visible
30 Jul 4.8 23:18:30 21° WSW 23:20:11 25° W 23:24:33 10° NW visible
31 Jul 4.3 21:18:15 15° ESE 21:21:29 26° ENE 21:25:49 10° NNE visible
31 Jul 4.2 22:59:46 30° SW 23:01:30 37° W 23:06:28 10° NNW visible
01 Aug 4.8 20:59:41 10° ESE 21:03:08 18° ENE 21:06:35 10° NNE visible
01 Aug 3.6 22:41:02 38° SSW 22:42:53 56° W 22:48:09 10° NNW visible
02 Aug 5.1 20:42:56 10° E 20:44:50 12° ENE 20:46:43 10° NE visible
02 Aug 3.1 22:22:19 41° S 22:24:18 85° WSW 22:29:41 10° NNW visible
03 Aug 3.1 22:03:36 36° SE 22:05:46 65° ENE 22:11:05 10° N visible
03 Aug 5.4 23:45:07 13° WSW 23:46:25 14° W 23:49:06 10° WNW visible
04 Aug 3.6 21:44:52 27° SE 21:47:17 44° ENE 21:52:21 10° N visible
04 Aug 5.0 23:26:24 19° WSW 23:27:41 21° W 23:31:41 10° NW visible
